Weather Roundup
Issued by NWS Springfield, MO

Home | Current Version | Previous Version | Text Only | Print | Product List | Glossary On
Versions: 1 2 3 4 5 6 7 8 9 10 11 12 13 14 15 16 17 18 19 20 21 22 23 24 25 26 27 28 29 30 31 32 33 34 35 36 37 38 39 40 41 42 43 44 45 46 47 48 49 50
000
NZUS99 KSGF 291207
HRRSGF

HOURLY WEATHER
NATIONAL WEATHER SERVICE SPRINGFIELD MO
700 AM CDT WED MAR 29 2017

......SGF CWA......

CITY           SKY/WX    TMP DP  RH WIND       PRES   REMARKS
SPRINGFIELD    PTCLDY    55  50  83 SE18      29.83F
6HR MIN TEMP:  54; 6HR MAX TEMP:  57; 6HR PCP: TRACE;

JOPLIN         MOCLDY    57  54  89 E16G26    29.72F
6HR MIN TEMP:  57; 6HR MAX TEMP:  61; 6HR PCP:  0.16;

WEST PLAINS    CLOUDY    54  50  86 E10       29.94R
6HR MIN TEMP:  53; 6HR MAX TEMP:  54;

ROLLA          CLOUDY    52  49  89 E22G30    29.91S
6HR MIN TEMP:  50; 6HR MAX TEMP:  52;

OSAGE BEACH    CLOUDY    54  48  80 E10       29.92R
BRANSON        CLOUDY    54  50  87 E21       29.85F

......SURROUNDING SGF CWA......

CITY           SKY/WX    TMP DP  RH WIND       PRES   REMARKS
CHANUTE        LGT RAIN  57  55  93 E16G23    29.70F
PARSONS        LGT RAIN  58  56  93 E12G20    29.67F
COFFEYVILLE    LGT RAIN  59  57  93 E18G28    29.64F
EMPORIA        CLOUDY    50  50 100 E23G30    29.73F
GROVE OK       CLOUDY    61  55  82 E12G21    29.71R
ROGERS AR      CLOUDY    57  53  86 E18G28    29.76F
SILOAM SPRINGS MOCLDY    63  54  72 SE13G18   29.72S
HARRISON AR    PTCLDY    53  52  96 SE10      29.86F
NEAR YELLVILLE CLOUDY    55  48  76 E7        29.88F

......KANSAS AND MISSOURI......

CITY           SKY/WX    TMP DP  RH WIND       PRES   REMARKS
KANSAS CTY INT DRIZZLE   49  48  97 E18G26    29.89F FOG
DOWNTOWN KC    CLOUDY    50  48  93 E18G25    29.89F
COLUMBIA       TSTM      51  48  89 E17G26    29.91S
SEDALIA        RAIN      51  50  96 E13       29.94F FOG
ST JOSEPH      LGT RAIN  48  48 100 E16G28    29.90F FOG
ST LOUIS       NOT AVBL
SPIRIT OF STL  CLOUDY    50  45  83 E12       29.99F
KIRKSVILLE     LGT RAIN  47  43  86 NE8       30.10R
WICHITA        LGT RAIN  50  50 100 N14       29.67F
TOPEKA         LGT RAIN  51  50  96 E17       29.83F
OLATHE         CLOUDY    49  49 100 E14G25    29.85F

......TENNESSEE......

CITY           SKY/WX    TMP DP  RH WIND       PRES   REMARKS
MEMPHIS        PTCLDY    62  55  77 E5        29.91S
NASHVILLE      PTCLDY    53  51  93 E6        30.05R

......ARKANSAS.......

CITY           SKY/WX    TMP DP  RH WIND       PRES   REMARKS
FAYETTEVILLE   MOCLDY    62  56  80 SE14G21   29.74F
FT SMITH       CLOUDY    62  54  74 E14G20    29.73S
LITTLE ROCK    MOCLDY    58  57  97 NE6       29.89R

......OKLAHOMA.......

CITY           SKY/WX    TMP DP  RH WIND       PRES   REMARKS
TULSA          LGT RAIN  60  60 100 W9        29.65R FOG
PONCA CITY     LGT RAIN  53  51  93 NE8       29.59F
MCALESTER      LGT RAIN  60  56  86 VRB5      29.69F
OKLAHOMA CITY  CLOUDY    53  51  93 CALM      29.62R

......IOWA............

CITY           SKY/WX    TMP DP  RH WIND       PRES   REMARKS
DES MOINES     LGT RAIN  45  40  82 E9        30.10F
QUAD CITIES    CLOUDY    44  40  85 E15G24    30.16S

......ILLINOIS........

CITY           SKY/WX    TMP DP  RH WIND       PRES   REMARKS
QUINCY         CLOUDY    43  40  89 E14       30.04R
CHICAGO        FOG       35  33  92 NE7       30.24R VSB 3/4 WCI  29




USA.gov is the U.S. government's official web portal to all federal, state and local government web resources and services.